| time (UTC) | temp F | wind direction | speed knots | gust knots | rain 1hr in | rain 24hr in | rain mn in | humidity % | barometer mb |
| 20260505112036 | 62 | 17 | 5.2 | 11.3 | 0.00 | 0.00 | 0.00 | 60 | 1012.8 |
| 20260505111546 | 62 | 53 | 4.3 | 14.8 | 0.00 | 0.00 | 0.00 | 61 | 1012.7 |
| 20260505111036 | 62 | 32 | 6.1 | 14.8 | 0.00 | 0.00 | 0.00 | 59 | 1012.8 |
| 20260505110535 | 64 | 47 | 3.5 | 11.3 | 0.00 | 0.00 | 0.00 | 58 | 1012.8 |
| 20260505102037 | 60 | 5 | 5.2 | 11.3 | 0.00 | 0.00 | 0.00 | 64 | 1013.1 |
| 20260505101543 | 60 | 69 | 3.5 | 10.4 | 0.00 | 0.00 | 0.00 | 60 | 1013.1 |
| 20260505101036 | 60 | 22 | 6.1 | 10.4 | 0.00 | 0.00 | 0.00 | 61 | 1013.1 |
| 20260505100536 | 60 | 17 | 5.2 | 10.4 | 0.00 | 0.00 | 0.00 | 61 | 1013.1 |
| 20260505100048 | 59 | 66 | 4.3 | 10.4 | 0.00 | 0.00 | 0.00 | 60 | 1013.2 |
| 20260505095536 | 60 | 26 | 5.2 | 13.0 | 0.00 | 0.00 | 0.00 | 60 | 1013.2 |
| 20260505095036 | 60 | 10 | 5.2 | 13.0 | 0.00 | 0.00 | 0.00 | 61 | 1013.1 |
| 20260505094549 | 59 | 19 | 5.2 | 13.9 | 0.00 | 0.00 | 0.00 | 62 | 1013.2 |
| 20260505094036 | 59 | 42 | 7.0 | 13.9 | 0.00 | 0.00 | 0.00 | 64 | 1013.1 |
| 20260505093536 | 59 | 5 | 5.2 | 9.6 | 0.00 | 0.00 | 0.00 | 64 | 1013.3 |
| 20260505093046 | 60 | 30 | 4.3 | 9.6 | 0.00 | 0.00 | 0.00 | 63 | 1013.3 |
| 20260505092537 | 60 | 63 | 5.2 | 12.2 | 0.00 | 0.00 | 0.00 | 62 | 1013.2 |
| 20260505092036 | 60 | 30 | 4.3 | 12.2 | 0.00 | 0.00 | 0.00 | 62 | 1013.3 |
| 20260505091601 | 60 | 48 | 6.1 | 11.3 | 0.00 | 0.00 | 0.00 | 64 | 1013.3 |
| 20260505091037 | 59 | 350 | 4.3 | 11.3 | 0.00 | 0.00 | 0.00 | 66 | 1013.4 |
| 20260505090537 | 58 | 46 | 6.1 | 11.3 | 0.00 | 0.00 | 0.00 | 65 | 1013.4 |
| 20260505090055 | 58 | 32 | 5.2 | 11.3 | 0.00 | 0.00 | 0.00 | 67 | 1013.3 |
| 20260505085537 | 58 | 28 | 4.3 | 11.3 | 0.00 | 0.00 | 0.00 | 68 | 1013.3 |
| 20260505085036 | 58 | 31 | 4.3 | 10.4 | 0.00 | 0.00 | 0.00 | 68 | 1013.4 |
| 20260505084601 | 58 | 55 | 4.3 | 10.4 | 0.00 | 0.00 | 0.00 | 68 | 1013.4 |
| 20260505084037 | 58 | 38 | 4.3 | 10.4 | 0.00 | 0.00 | 0.00 | 68 | 1013.4 |
| 20260505083533 | 57 | 355 | 3.5 | 9.6 | 0.00 | 0.00 | 0.00 | 70 | 1013.5 |
| 20260505083103 | 57 | 63 | 3.5 | 9.6 | 0.00 | 0.00 | 0.00 | 70 | 1013.4 |
| 20260505082537 | 57 | 43 | 4.3 | 13.0 | 0.00 | 0.00 | 0.00 | 70 | 1013.5 |
| 20260505082037 | 57 | 37 | 4.3 | 13.0 | 0.00 | 0.00 | 0.00 | 70 | 1013.5 |
| 20260505081557 | 57 | 30 | 4.3 | 12.2 | 0.00 | 0.00 | 0.00 | 70 | 1013.5 |
| 20260505081037 | 57 | 22 | 4.3 | 12.2 | 0.00 | 0.00 | 0.00 | 69 | 1013.6 |
| 20260505080537 | 57 | 17 | 4.3 | 10.4 | 0.00 | 0.00 | 0.00 | 69 | 1013.5 |
| 20260505080057 | 57 | 24 | 5.2 | 13.0 | 0.00 | 0.00 | 0.00 | 68 | 1013.6 |
| 20260505075534 | 57 | 355 | 5.2 | 13.0 | 0.00 | 0.00 | 0.00 | 68 | 1013.5 |
| 20260505075034 | 57 | 50 | 6.1 | 12.2 | 0.00 | 0.00 | 0.00 | 67 | 1013.5 |
| 20260505074548 | 58 | 41 | 7.0 | 12.2 | 0.00 | 0.00 | 0.00 | 67 | 1013.6 |
| 20260505074034 | 58 | 74 | 4.3 | 11.3 | 0.00 | 0.00 | 0.00 | 68 | 1013.4 |
| 20260505073535 | 58 | 11 | 4.3 | 11.3 | 0.00 | 0.00 | 0.00 | 67 | 1013.3 |
| 20260505073054 | 57 | 46 | 4.3 | 11.3 | 0.00 | 0.00 | 0.00 | 68 | 1013.4 |
| 20260505072536 | 57 | 34 | 4.3 | 10.4 | 0.00 | 0.00 | 0.00 | 69 | 1013.4 |
| 20260505072036 | 57 | 9 | 2.6 | 11.3 | 0.00 | 0.00 | 0.00 | 69 | 1013.4 |
| 20260505071549 | 57 | 55 | 4.3 | 11.3 | 0.00 | 0.00 | 0.00 | 69 | 1013.4 |
| 20260505071037 | 57 | 96 | 2.6 | 8.7 | 0.00 | 0.00 | 0.00 | 71 | 1013.4 |
| 20260505070535 | 57 | 25 | 3.5 | 8.7 | 0.00 | 0.00 | 0.00 | 72 | 1013.4 |
| 20260505070052 | 56 | 19 | 3.5 | 9.6 | 0.00 | 0.00 | 0.00 | 73 | 1013.4 |
| 20260505065537 | 56 | 30 | 4.3 | 9.6 | 0.00 | 0.00 | 0.00 | 74 | 1013.5 |
| 20260505065036 | 56 | 49 | 3.5 | 9.6 | 0.00 | 0.00 | 0.00 | 75 | 1013.5 |
| 20260505064545 | 55 | 38 | 4.3 | 9.6 | 0.00 | 0.00 | 0.00 | 75 | 1013.6 |
| 20260505064038 | 55 | 46 | 3.5 | 10.4 | 0.00 | 0.00 | 0.00 | 76 | 1013.5 |
| 20260505063536 | 55 | 355 | 2.6 | 10.4 | 0.00 | 0.00 | 0.00 | 77 | 1013.5 |
| 20260505063052 | 55 | 65 | 2.6 | 7.8 | 0.00 | 0.00 | 0.00 | 77 | 1013.6 |
| 20260505062534 | 54 | 43 | 2.6 | 7.8 | 0.00 | 0.00 | 0.00 | 78 | 1013.5 |
| 20260505062034 | 54 | 30 | 2.6 | 9.6 | 0.00 | 0.00 | 0.00 | 79 | 1013.5 |
| 20260505061546 | 53 | 16 | 4.3 | 9.6 | 0.00 | 0.00 | 0.00 | 80 | 1013.4 |
| 20260505061034 | 53 | 36 | 3.5 | 7.8 | 0.00 | 0.00 | 0.00 | 80 | 1013.5 |
| 20260505060537 | 53 | 341 | 2.6 | 6.1 | 0.00 | 0.00 | 0.00 | 80 | 1013.4 |
| 20260505060101 | 53 | 42 | 2.6 | 5.2 | 0.00 | 0.00 | 0.00 | 80 | 1013.4 |
| 20260505055537 | 53 | 50 | 2.6 | 6.1 | 0.00 | 0.00 | 0.00 | 81 | 1013.5 |
| 20260505055034 | 53 | 43 | 2.6 | 6.1 | 0.00 | 0.00 | 0.00 | 81 | 1013.4 |
| 20260505054553 | 53 | 65 | 0.9 | 7.8 | 0.00 | 0.00 | 0.00 | 81 | 1013.5 |
| 20260505054039 | 53 | 32 | 1.7 | 7.8 | 0.00 | 0.00 | 0.00 | 81 | 1013.5 |
| 20260505053535 | 53 | 90 | 0.0 | 7.0 | 0.00 | 0.00 | 0.00 | 81 | 1013.4 |
| 20260505053051 | 53 | 36 | 1.7 | 7.0 | 0.00 | 0.00 | 0.00 | 81 | 1013.3 |
| 20260505052537 | 53 | 26 | 2.6 | 7.8 | 0.00 | 0.00 | 0.00 | 81 | 1013.2 |
| 20260505052038 | 53 | 32 | 0.0 | 7.8 | 0.00 | 0.00 | 0.00 | 81 | 1013.3 |
| 20260505051550 | 53 | 39 | 1.7 | 7.8 | 0.00 | 0.00 | 0.00 | 81 | 1013.2 |
| 20260505051037 | 53 | 20 | 0.9 | 7.0 | 0.00 | 0.00 | 0.00 | 81 | 1013.1 |
| 20260505050534 | 53 | 355 | 1.7 | 7.8 | 0.00 | 0.00 | 0.00 | 81 | 1013.1 |
| 20260505041555 | 54 | 0 | 0.9 | 4.3 | 0.00 | 0.00 | 0.00 | 80 | 1013.2 |
| 20260505041035 | 55 | 51 | 0.9 | 5.2 | 0.00 | 0.00 | 0.00 | 80 | 1013.2 |
| 20260505040536 | 55 | 37 | 0.9 | 5.2 | 0.00 | 0.00 | 0.00 | 80 | 1013.2 |
| 20260505040057 | 55 | 26 | 1.7 | 5.2 | 0.00 | 0.00 | 0.00 | 80 | 1013.2 |
| 20260505035535 | 55 | 24 | 1.7 | 5.2 | 0.00 | 0.00 | 0.00 | 81 | 1013.2 |
| 20260505035039 | 55 | 36 | 2.6 | 6.1 | 0.00 | 0.00 | 0.00 | 81 | 1013.2 |
| 20260505034550 | 55 | 5 | 2.6 | 6.1 | 0.00 | 0.00 | 0.00 | 81 | 1013.3 |
| 20260505034037 | 55 | 34 | 2.6 | 6.1 | 0.00 | 0.00 | 0.00 | 81 | 1013.3 |
| 20260505033536 | 55 | 40 | 1.7 | 6.1 | 0.00 | 0.00 | 0.00 | 81 | 1013.4 |
| 20260505033048 | 55 | 37 | 0.9 | 3.5 | 0.00 | 0.00 | 0.00 | 81 | 1013.5 |
| 20260505032535 | 55 | 16 | 1.7 | 3.5 | 0.00 | 0.00 | 0.00 | 81 | 1013.5 |
| 20260505032037 | 55 | 17 | 0.9 | 5.2 | 0.00 | 0.00 | 0.00 | 81 | 1013.6 |
| 20260505031548 | 55 | 26 | 1.7 | 5.2 | 0.00 | 0.00 | 0.00 | 81 | 1013.5 |
| 20260505031036 | 55 | 26 | 0.9 | 4.3 | 0.00 | 0.00 | 0.00 | 81 | 1013.5 |
| 20260505030537 | 55 | 22 | 0.9 | 4.3 | 0.00 | 0.00 | 0.00 | 81 | 1013.5 |
| 20260505030105 | 55 | 31 | 0.9 | 4.3 | 0.00 | 0.00 | 0.00 | 81 | 1013.5 |
| 20260505025537 | 55 | 26 | 0.0 | 5.2 | 0.00 | 0.00 | 0.00 | 81 | 1013.4 |
| 20260505025036 | 55 | 0 | 1.7 | 6.1 | 0.00 | 0.00 | 0.00 | 81 | 1013.5 |
| 20260505024549 | 55 | 36 | 1.7 | 6.1 | 0.00 | 0.00 | 0.00 | 80 | 1013.6 |
| 20260505024036 | 55 | 36 | 1.7 | 5.2 | 0.00 | 0.00 | 0.00 | 80 | 1013.5 |
| 20260505023537 | 55 | 50 | 0.9 | 4.3 | 0.00 | 0.00 | 0.00 | 80 | 1013.6 |
| 20260505023049 | 55 | 45 | 1.7 | 4.3 | 0.00 | 0.00 | 0.00 | 80 | 1013.5 |
| 20260505022537 | 55 | 352 | 1.7 | 8.7 | 0.00 | 0.00 | 0.00 | 80 | 1013.5 |
| 20260505022038 | 55 | 0 | 2.6 | 8.7 | 0.00 | 0.00 | 0.00 | 80 | 1013.6 |
| 20260505021546 | 55 | 42 | 2.6 | 8.7 | 0.00 | 0.00 | 0.00 | 80 | 1013.6 |
| 20260505021036 | 55 | 69 | 2.6 | 7.8 | 0.00 | 0.00 | 0.00 | 80 | 1013.5 |
| 20260505020536 | 56 | 46 | 3.5 | 7.8 | 0.00 | 0.00 | 0.00 | 80 | 1013.5 |
| 20260505020048 | 56 | 5 | 1.7 | 7.8 | 0.00 | 0.00 | 0.00 | 80 | 1013.5 |
| 20260505015536 | 56 | 68 | 1.7 | 7.8 | 0.00 | 0.00 | 0.00 | 80 | 1013.6 |
| 20260505015036 | 56 | 23 | 2.6 | 7.8 | 0.00 | 0.00 | 0.00 | 80 | 1013.6 |
| 20260505014606 | 56 | 0 | 0.9 | 5.2 | 0.00 | 0.00 | 0.00 | 80 | 1013.6 |
| 20260505014036 | 56 | 59 | 1.7 | 7.8 | 0.00 | 0.00 | 0.00 | 80 | 1013.6 |
| 20260505013536 | 56 | 59 | 1.7 | 7.8 | 0.00 | 0.00 | 0.00 | 80 | 1013.6 |
| 20260505013053 | 56 | 0 | 1.7 | 7.8 | 0.00 | 0.00 | 0.00 | 80 | 1013.7 |
| 20260505012537 | 56 | 65 | 1.7 | 5.2 | 0.00 | 0.00 | 0.00 | 80 | 1013.8 |
| 20260505012037 | 56 | 63 | 0.9 | 5.2 | 0.00 | 0.00 | 0.00 | 80 | 1013.8 |
| 20260505011546 | 56 | 59 | 1.7 | 7.0 | 0.00 | 0.00 | 0.00 | 80 | 1013.9 |
| 20260505011040 | 56 | 42 | 0.9 | 7.0 | 0.00 | 0.00 | 0.00 | 81 | 1013.8 |
| 20260505010536 | 56 | 57 | 3.5 | 8.7 | 0.00 | 0.00 | 0.00 | 80 | 1013.9 |
| 20260505010058 | 56 | 48 | 2.6 | 10.4 | 0.00 | 0.00 | 0.00 | 80 | 1014.0 |
| 20260505005539 | 56 | 0 | 3.5 | 10.4 | 0.00 | 0.00 | 0.00 | 81 | 1013.9 |
| 20260505005037 | 56 | 44 | 1.7 | 9.6 | 0.00 | 0.00 | 0.00 | 81 | 1014.0 |
| 20260505004551 | 56 | 71 | 2.6 | 9.6 | 0.00 | 0.00 | 0.00 | 81 | 1014.0 |
| 20260505004036 | 56 | 38 | 3.5 | 7.8 | 0.00 | 0.00 | 0.00 | 81 | 1014.0 |
| 20260505003536 | 56 | 60 | 2.6 | 7.8 | 0.00 | 0.00 | 0.00 | 81 | 1014.0 |
| 20260505003056 | 56 | 70 | 0.9 | 7.8 | 0.00 | 0.00 | 0.00 | 81 | 1014.1 |
| 20260505002536 | 56 | 0 | 2.6 | 7.8 | 0.00 | 0.00 | 0.00 | 81 | 1014.1 |
| 20260505002036 | 56 | 54 | 1.7 | 8.7 | 0.00 | 0.00 | 0.00 | 80 | 1014.1 |
| 20260505001549 | 56 | 38 | 1.7 | 8.7 | 0.00 | 0.00 | 0.00 | 80 | 1014.1 |
| 20260505001036 | 56 | 26 | 3.5 | 7.8 | 0.00 | 0.00 | 0.00 | 80 | 1014.2 |
| 20260505000537 | 56 | 50 | 2.6 | 7.8 | 0.00 | 0.00 | 0.00 | 80 | 1014.2 |
| 20260505000057 | 56 | 32 | 0.9 | 7.8 | 0.00 | 0.00 | 0.00 | 79 | 1014.3 |
| 20260504235539 | 57 | 40 | 3.5 | 7.8 | 0.00 | 0.00 | 0.00 | 79 | 1014.3 |
| 20260504235037 | 57 | 42 | 3.5 | 8.7 | 0.00 | 0.00 | 0.00 | 79 | 1014.3 |
| 20260504234547 | 57 | 50 | 2.6 | 8.7 | 0.00 | 0.00 | 0.00 | 79 | 1014.3 |
| 20260504234036 | 57 | 48 | 3.5 | 8.7 | 0.00 | 0.00 | 0.00 | 79 | 1014.3 |
| 20260504233536 | 57 | 44 | 1.7 | 7.0 | 0.00 | 0.00 | 0.00 | 79 | 1014.3 |
| 20260504233048 | 57 | 44 | 2.6 | 7.0 | 0.00 | 0.00 | 0.00 | 80 | 1014.3 |
| 20260504232537 | 57 | 0 | 2.6 | 7.8 | 0.00 | 0.00 | 0.00 | 80 | 1014.2 |
| 20260504232038 | 57 | 15 | 2.6 | 7.8 | 0.00 | 0.00 | 0.00 | 80 | 1014.2 |
| 20260504231542 | 57 | 37 | 2.6 | 7.8 | 0.00 | 0.00 | 0.00 | 80 | 1014.2 |
| 20260504231036 | 57 | 0 | 0.0 | 8.7 | 0.00 | 0.00 | 0.00 | 80 | 1014.3 |
| 20260504230536 | 57 | 46 | 2.6 | 8.7 | 0.00 | 0.00 | 0.00 | 80 | 1014.3 |
| 20260504230050 | 57 | 55 | 2.6 | 8.7 | 0.00 | 0.00 | 0.00 | 79 | 1014.2 |
| 20260504225536 | 57 | 0 | 2.6 | 7.0 | 0.00 | 0.00 | 0.00 | 79 | 1014.2 |
| 20260504225036 | 57 | 355 | 2.6 | 7.0 | 0.00 | 0.00 | 0.00 | 80 | 1014.3 |
| 20260504224548 | 57 | 46 | 2.6 | 7.0 | 0.00 | 0.00 | 0.00 | 80 | 1014.3 |
| 20260504224037 | 57 | 15 | 0.9 | 5.2 | 0.00 | 0.00 | 0.00 | 80 | 1014.2 |
| 20260504223535 | 58 | 34 | 0.9 | 6.1 | 0.00 | 0.00 | 0.00 | 80 | 1014.2 |
| 20260504223101 | 58 | 26 | 1.7 | 6.1 | 0.00 | 0.00 | 0.00 | 80 | 1014.3 |
| 20260504222535 | 58 | 0 | 1.7 | 4.3 | 0.00 | 0.00 | 0.00 | 80 | 1014.3 |
| 20260504222034 | 58 | 44 | 0.9 | 5.2 | 0.00 | 0.00 | 0.00 | 80 | 1014.3 |
| 20260504221551 | 58 | 56 | 1.7 | 5.2 | 0.00 | 0.00 | 0.00 | 80 | 1014.4 |
| 20260504221036 | 58 | 66 | 1.7 | 4.3 | 0.00 | 0.00 | 0.00 | 80 | 1014.3 |
| 20260504220534 | 58 | 48 | 1.7 | 4.3 | 0.00 | 0.00 | 0.00 | 80 | 1014.4 |
| 20260504220050 | 58 | 35 | 0.9 | 4.3 | 0.00 | 0.00 | 0.00 | 80 | 1014.5 |
| 20260504215534 | 58 | 0 | 0.9 | 7.8 | 0.00 | 0.00 | 0.00 | 80 | 1014.5 |
| 20260504215036 | 58 | 72 | 1.7 | 7.8 | 0.00 | 0.00 | 0.00 | 79 | 1014.5 |
| 20260504214547 | 58 | 49 | 3.5 | 7.8 | 0.00 | 0.00 | 0.00 | 79 | 1014.5 |
| 20260504214038 | 58 | 64 | 2.6 | 7.8 | 0.00 | 0.00 | 0.00 | 79 | 1014.4 |
| 20260504213536 | 58 | 80 | 2.6 | 7.8 | 0.00 | 0.00 | 0.00 | 79 | 1014.5 |
| 20260504213050 | 58 | 71 | 3.5 | 7.8 | 0.00 | 0.00 | 0.00 | 79 | 1014.5 |
| 20260504212538 | 58 | 84 | 2.6 | 7.0 | 0.00 | 0.00 | 0.00 | 78 | 1014.4 |
| 20260504212033 | 58 | 75 | 3.5 | 7.0 | 0.00 | 0.00 | 0.00 | 78 | 1014.4 |
| 20260504211634 | 58 | 63 | 2.6 | 7.0 | 0.00 | 0.00 | 0.00 | 77 | 1014.3 |
| 20260504211033 | 58 | 34 | 0.9 | 3.5 | 0.00 | 0.00 | 0.00 | 76 | 1014.3 |
| 20260504210535 | 58 | 163 | 0.0 | 1.7 | 0.00 | 0.00 | 0.00 | 76 | 1014.3 |
| 20260504210050 | 58 | 0 | 0.0 | 0.0 | 0.00 | 0.00 | 0.00 | 76 | 1014.4 |
| 20260504205537 | 58 | 0 | 0.0 | 0.0 | 0.00 | 0.00 | 0.00 | 75 | 1014.4 |
| 20260504205035 | 58 | 0 | 0.0 | 0.0 | 0.00 | 0.00 | 0.00 | 75 | 1014.3 |
| 20260504204550 | 58 | 0 | 0.0 | 2.6 | 0.00 | 0.00 | 0.00 | 75 | 1014.3 |
| 20260504204036 | 58 | 0 | 0.0 | 3.5 | 0.00 | 0.00 | 0.00 | 75 | 1014.3 |
| 20260504203534 | 58 | 0 | 1.7 | 3.5 | 0.00 | 0.00 | 0.00 | 75 | 1014.4 |
| 20260504203049 | 58 | 0 | 0.0 | 2.6 | 0.00 | 0.00 | 0.00 | 74 | 1014.2 |
| 20260504202536 | 59 | 211 | 0.9 | 2.6 | 0.00 | 0.00 | 0.00 | 74 | 1014.3 |
| 20260504202033 | 59 | 211 | 0.0 | 2.6 | 0.00 | 0.00 | 0.00 | 74 | 1014.2 |
| 20260504201544 | 59 | 211 | 0.9 | 2.6 | 0.00 | 0.00 | 0.00 | 73 | 1014.3 |
| 20260504201035 | 59 | 211 | 0.9 | 2.6 | 0.00 | 0.00 | 0.00 | 73 | 1014.2 |
| 20260504200536 | 59 | 211 | 0.0 | 2.6 | 0.00 | 0.00 | 0.00 | 73 | 1014.1 |
| 20260504200052 | 59 | 211 | 0.9 | 2.6 | 0.00 | 0.00 | 0.00 | 73 | 1014.1 |
| 20260504195533 | 59 | 211 | 0.9 | 3.5 | 0.00 | 0.00 | 0.00 | 73 | 1014.1 |
| 20260504195034 | 59 | 211 | 0.9 | 3.5 | 0.00 | 0.00 | 0.00 | 73 | 1014.2 |
| 20260504194551 | 60 | 211 | 0.9 | 3.5 | 0.00 | 0.00 | 0.00 | 72 | 1014.1 |
| 20260504194037 | 60 | 224 | 1.7 | 4.3 | 0.00 | 0.00 | 0.00 | 72 | 1014.0 |
| 20260504193537 | 60 | 224 | 1.7 | 4.3 | 0.00 | 0.00 | 0.00 | 72 | 1013.9 |
| 20260504193053 | 60 | 219 | 2.6 | 4.3 | 0.00 | 0.00 | 0.00 | 72 | 1013.8 |
| 20260504192537 | 61 | 255 | 1.7 | 3.5 | 0.00 | 0.00 | 0.00 | 71 | 1013.8 |
| 20260504192034 | 61 | 239 | 1.7 | 3.5 | 0.00 | 0.00 | 0.00 | 71 | 1013.8 |
| 20260504191601 | 61 | 239 | 0.9 | 3.5 | 0.00 | 0.00 | 0.00 | 71 | 1013.9 |
| 20260504191034 | 61 | 240 | 1.7 | 4.3 | 0.00 | 0.00 | 0.00 | 71 | 1013.9 |
| 20260504190534 | 61 | 213 | 1.7 | 4.3 | 0.00 | 0.00 | 0.00 | 71 | 1013.9 |
| 20260504190106 | 61 | 236 | 1.7 | 5.2 | 0.00 | 0.00 | 0.00 | 71 | 1013.9 |
| 20260504185537 | 61 | 246 | 1.7 | 5.2 | 0.00 | 0.00 | 0.00 | 71 | 1013.8 |
| 20260504185034 | 61 | 208 | 1.7 | 3.5 | 0.00 | 0.00 | 0.00 | 71 | 1013.8 |
| 20260504184552 | 61 | 219 | 2.6 | 3.5 | 0.00 | 0.00 | 0.00 | 71 | 1013.8 |
| 20260504184036 | 62 | 225 | 0.0 | 3.5 | 0.00 | 0.00 | 0.00 | 70 | 1013.8 |
| 20260504183536 | 62 | 221 | 1.7 | 5.2 | 0.00 | 0.00 | 0.00 | 70 | 1013.8 |
| 20260504183050 | 62 | 257 | 1.7 | 5.2 | 0.00 | 0.00 | 0.00 | 69 | 1013.7 |
| 20260504182538 | 62 | 215 | 1.7 | 5.2 | 0.00 | 0.00 | 0.00 | 69 | 1013.8 |
| 20260504182036 | 62 | 219 | 1.7 | 6.1 | 0.00 | 0.00 | 0.00 | 68 | 1013.7 |
| 20260504181542 | 63 | 217 | 3.5 | 7.0 | 0.00 | 0.00 | 0.00 | 68 | 1013.7 |
| 20260504181037 | 63 | 256 | 2.6 | 7.0 | 0.00 | 0.00 | 0.00 | 66 | 1013.7 |
| 20260504180537 | 63 | 240 | 0.9 | 6.1 | 0.00 | 0.00 | 0.00 | 66 | 1013.7 |
| 20260504180053 | 63 | 263 | 1.7 | 6.1 | 0.00 | 0.00 | 0.00 | 66 | 1013.6 |
| 20260504175534 | 64 | 232 | 1.7 | 4.3 | 0.00 | 0.00 | 0.00 | 65 | 1013.6 |
| 20260504175036 | 64 | 269 | 2.6 | 4.3 | 0.00 | 0.00 | 0.00 | 65 | 1013.6 |
| 20260504174548 | 64 | 0 | 0.0 | 6.1 | 0.00 | 0.00 | 0.00 | 64 | 1013.6 |
| 20260504174034 | 65 | 0 | 0.0 | 6.1 | 0.00 | 0.00 | 0.00 | 63 | 1013.6 |
| 20260504173535 | 65 | 259 | 0.0 | 5.2 | 0.00 | 0.00 | 0.00 | 64 | 1013.6 |
| 20260504173054 | 64 | 0 | 1.7 | 5.2 | 0.00 | 0.00 | 0.00 | 64 | 1013.5 |
| 20260504172533 | 65 | 202 | 0.9 | 5.2 | 0.00 | 0.00 | 0.00 | 64 | 1013.5 |
| 20260504172036 | 64 | 245 | 0.0 | 5.2 | 0.00 | 0.00 | 0.00 | 65 | 1013.5 |
| 20260504171547 | 65 | 213 | 0.0 | 5.2 | 0.00 | 0.00 | 0.00 | 63 | 1013.5 |
| 20260504171033 | 65 | 0 | 0.0 | 5.2 | 0.00 | 0.00 | 0.00 | 62 | 1013.5 |
| 20260504170536 | 65 | 233 | 0.0 | 5.2 | 0.00 | 0.00 | 0.00 | 64 | 1013.5 |
| 20260504151037 | 67 | 143 | 0.0 | 5.2 | 0.00 | 0.00 | 0.00 | 62 | 1013.6 |
| 20260504150534 | 67 | 219 | 0.0 | 7.0 | 0.00 | 0.00 | 0.00 | 62 | 1013.6 |
| 20260504141036 | 67 | 0 | 0.9 | 6.1 | 0.00 | 0.00 | 0.00 | 64 | 1013.7 |
| 20260504140537 | 67 | 0 | 0.0 | 6.1 | 0.00 | 0.00 | 0.00 | 63 | 1013.8 |
| 20260504130536 | 66 | 0 | 2.6 | 9.6 | 0.00 | 0.00 | 0.00 | 60 | 1013.8 |